EW4117 Gor ES current weather conditions

sailwx.info

Wind from 316 at 1 knots gusting 11

Air temperature 27.8° C
Dewpoint 2.7° C

Last reported at 2018-Jul-22 12:06 UTC.
Time now 2018-Jul-22 12:29 UTC

Location: N 37°22' W 002°59'.
View on Google Maps.

See reports from other nearby stations

  
Tides and Currents Weather Stations Pressure Air Temp Water Temp Dewpoint Dewpoint Depression Visibility Wind Speed Wind Dir Waves Ship Positions
date/time (UTC)wind fromknots sea level pressurealtimeterstation pressurevisibilityair tempwater tempwave heightnotes
2018-Jul-22 12:06 316 1 gusting 11 27.8
2018-Jul-22 11:51 272 5 gusting 9 27.8
2018-Jul-22 11:36 300 6 gusting 11 27.2
2018-Jul-22 11:21 268 26.7
2018-Jul-22 11:06 286 3 gusting 10 26.1
2018-Jul-22 10:51 243 25.6
2018-Jul-22 10:36 341 6 gusting 10 25.0
2018-Jul-22 10:21 353 4 gusting 7 25.0
2018-Jul-22 10:06 347 2 gusting 8 24.4
2018-Jul-22 09:51 349 4 gusting 8 23.9
2018-Jul-22 09:37 037 4 gusting 10 23.9
2018-Jul-22 09:21 331 2 gusting 6 24.4
2018-Jul-22 09:06 344 0 gusting 4 23.9
2018-Jul-22 08:51 345 2 gusting 5 23.3
2018-Jul-22 08:36 030 22.8
2018-Jul-22 08:21 345 22.8
2018-Jul-22 08:06 056 1 gusting 3 22.2
2018-Jul-22 07:51 021 1 gusting 4 21.7
2018-Jul-22 07:36 055 1 gusting 4 21.7
2018-Jul-22 07:21 054 0 gusting 4 21.1
2018-Jul-22 07:06 060 1 gusting 3 20.6
2018-Jul-22 06:51 044 2 gusting 4 20.0
2018-Jul-22 06:36 069 2 gusting 3 20.0
2018-Jul-22 06:21 119 0 gusting 2 19.4
2018-Jul-22 06:06 259 18.9
2018-Jul-22 05:51 224 17.8
2018-Jul-22 05:36 210 17.2
2018-Jul-22 05:21 155 17.2
2018-Jul-22 05:06 163 0 gusting 2 17.2
2018-Jul-22 04:51 144 17.2
2018-Jul-22 04:36 155 17.2
2018-Jul-22 04:21 134 0 gusting 1 17.8
2018-Jul-22 04:06 171 17.8
2018-Jul-22 03:51 150 18.3
2018-Jul-22 03:36 157 0 gusting 2 18.3
2018-Jul-22 03:20 150 1 gusting 3 18.3
2018-Jul-22 03:05 155 1 gusting 3 18.3
2018-Jul-22 02:50 144 18.3
2018-Jul-22 02:35 144 18.9
2018-Jul-22 02:20 156 0 gusting 3 18.9
2018-Jul-22 02:05 161 1 gusting 2 18.9
2018-Jul-22 01:50 153 0 gusting 2 18.9
2018-Jul-22 01:35 160 18.9
2018-Jul-22 01:20 152 0 gusting 1 18.9
2018-Jul-22 01:05 146 0 gusting 2 18.9
2018-Jul-22 00:50 157 1 gusting 2 18.9
2018-Jul-22 00:35 149 2 gusting 3 18.9
2018-Jul-22 00:20 160 0 gusting 2 19.4
2018-Jul-22 00:05 165 1 gusting 3 19.4
2018-Jul-21 23:50 160 19.4
2018-Jul-21 23:35 157 2 gusting 3 19.4
2018-Jul-21 23:20 153 1 gusting 3 19.4
2018-Jul-21 23:05 157 1 gusting 2 20.0
2018-Jul-21 22:50 149 20.0
2018-Jul-21 22:35 155 20.0
2018-Jul-21 22:20 168 0 gusting 2 20.6
2018-Jul-21 22:05 144 21.1
2018-Jul-21 21:50 158 0 gusting 2 21.1
2018-Jul-21 21:35 119 21.7
2018-Jul-21 21:20 119 21.7
2018-Jul-21 21:05 053 21.7
2018-Jul-21 20:50 085 22.2
2018-Jul-21 20:35 085 22.2
2018-Jul-21 20:20 040 22.2
2018-Jul-21 20:05 031 22.8
2018-Jul-21 19:50 013 1 gusting 4 22.8
2018-Jul-21 19:35 032 0 gusting 2 23.3
2018-Jul-21 19:20 005 3 gusting 7 24.4
2018-Jul-21 19:05 352 4 gusting 9 25.0
2018-Jul-21 18:50 330 2 gusting 8 26.7
2018-Jul-21 18:35 348 4 gusting 9 27.2
2018-Jul-21 18:20 259 5 gusting 12 27.2
2018-Jul-21 18:05 221 5 gusting 13 27.8
2018-Jul-21 17:50 311 6 gusting 16 27.8
2018-Jul-21 17:35 290 6 gusting 13 28.3
2018-Jul-21 17:20 314 5 gusting 13 28.3
2018-Jul-21 17:05 314 3 gusting 12 28.3
2018-Jul-21 16:50 311 6 gusting 13 28.9
2018-Jul-21 16:35 309 4 gusting 13 28.9
2018-Jul-21 16:19 303 4 gusting 11 28.9
2018-Jul-21 16:04 345 6 gusting 12 28.9
2018-Jul-21 15:49 321 6 gusting 13 28.3
2018-Jul-21 15:35 334 6 gusting 12 28.9
2018-Jul-21 15:19 030 3 gusting 12 28.9
2018-Jul-21 15:04 343 5 gusting 11 28.3
2018-Jul-21 14:49 247 4 gusting 14 28.3
2018-Jul-21 14:34 300 28.3
2018-Jul-21 14:19 265 1 gusting 11 28.3
2018-Jul-21 14:04 306 4 gusting 9 28.3
2018-Jul-21 13:49 294 2 gusting 13 28.3
2018-Jul-21 13:34 262 6 gusting 11 28.3
2018-Jul-21 13:19 327 1 gusting 9 28.3
2018-Jul-21 13:04 320 3 gusting 11 27.8
2018-Jul-21 12:49 300 4 gusting 10 27.8
2018-Jul-21 12:34 302 4 gusting 9 27.2
2018-Jul-21 12:19 252 1 gusting 6 26.7
2018-Jul-21 12:04 325 4 gusting 8 26.1
2018-Jul-21 11:49 027 3 gusting 9 25.6
2018-Jul-21 11:34 026 6 gusting 10 25.6
2018-Jul-21 11:19 309 6 gusting 11 26.1
2018-Jul-21 11:04 278 1 gusting 6 25.6
2018-Jul-21 10:49 034 25.0
2018-Jul-21 10:34 343 5 gusting 8 24.4
2018-Jul-21 10:19 333 5 gusting 11 23.9
2018-Jul-21 10:04 013 4 gusting 9 23.9
2018-Jul-21 09:49 318 3 gusting 7 23.9
2018-Jul-21 09:34 302 0 gusting 4 23.3
2018-Jul-21 09:19 333 3 gusting 6 23.3
2018-Jul-21 09:04 104 23.3
2018-Jul-21 08:49 006 0 gusting 5 22.2
2018-Jul-21 08:34 068 2 gusting 6 22.2
2018-Jul-21 08:19 034 21.7
2018-Jul-21 08:04 038 0 gusting 4 21.7
2018-Jul-21 07:49 333 1 gusting 4 21.1
2018-Jul-21 07:34 319 0 gusting 2 20.6
2018-Jul-21 07:19 321 20.6
2018-Jul-21 07:04 344 21.1
2018-Jul-21 06:49 145 21.1
2018-Jul-21 06:34 147 20.0
2018-Jul-21 06:18 143 19.4
2018-Jul-21 06:04 143 18.3
2018-Jul-21 05:48 158 1 gusting 3 17.2
2018-Jul-21 05:33 158 1 gusting 2 16.7
2018-Jul-21 05:18 156 0 gusting 2 16.1
2018-Jul-21 05:03 153 0 gusting 2 16.1
2018-Jul-21 04:48 159 2 gusting 3 16.1
2018-Jul-21 04:33 157 0 gusting 2 16.1
2018-Jul-21 04:18 163 1 gusting 3 16.1
2018-Jul-21 04:03 150 0 gusting 2 16.7
2018-Jul-21 03:48 161 0 gusting 2 16.7
2018-Jul-21 03:33 158 0 gusting 2 16.7
2018-Jul-21 03:18 156 0 gusting 2 16.7
2018-Jul-21 03:03 162 0 gusting 1 16.7
2018-Jul-21 02:48 171 17.2
2018-Jul-21 02:33 146 1 gusting 2 17.2
2018-Jul-21 02:18 168 17.2
2018-Jul-21 02:03 170 17.2
2018-Jul-21 01:48 158 17.8
2018-Jul-21 01:33 224 17.8
2018-Jul-21 01:18 265 18.3
2018-Jul-21 01:03 203 18.3
2018-Jul-21 00:48 243 0 gusting 3 18.9
2018-Jul-21 00:33 226 0 gusting 4 18.9
2018-Jul-21 00:18 271 2 gusting 5 18.9
2018-Jul-21 00:03 216 2 gusting 5 18.9
2018-Jul-20 23:48 250 1 gusting 4 18.9
2018-Jul-20 23:33 184 1 gusting 4 18.9
2018-Jul-20 23:18 238 0 gusting 4 19.4
2018-Jul-20 23:03 229 1 gusting 6 19.4
2018-Jul-20 22:48 232 0 gusting 5 20.0
2018-Jul-20 22:33 229 1 gusting 4 20.0
2018-Jul-20 22:18 238 1 gusting 4 20.6
2018-Jul-20 22:03 231 20.0
2018-Jul-20 21:48 231 0 gusting 4 20.6
2018-Jul-20 21:33 257 0 gusting 3 20.6
2018-Jul-20 21:18 248 20.6
2018-Jul-20 21:03 306 21.1
2018-Jul-20 20:48 271 21.7
2018-Jul-20 20:33 265 0 gusting 5 21.7
2018-Jul-20 20:18 266 2 gusting 6 22.2
2018-Jul-20 20:03 271 1 gusting 6 22.8
2018-Jul-20 19:47 300 3 gusting 9 23.3
2018-Jul-20 19:32 272 4 gusting 9 23.9
2018-Jul-20 19:17 257 4 gusting 9 25.0
2018-Jul-20 19:02 301 5 gusting 12 25.6
2018-Jul-20 18:47 288 5 gusting 10 25.6
2018-Jul-20 18:32 314 6 gusting 11 26.1
2018-Jul-20 18:17 319 5 gusting 12 26.7
2018-Jul-20 18:02 281 5 gusting 11 27.2
2018-Jul-20 17:47 314 5 gusting 11 27.2
2018-Jul-20 17:32 266 4 gusting 10 28.3
2018-Jul-20 17:17 267 2 gusting 12 27.8
2018-Jul-20 17:02 285 5 gusting 13 28.3
2018-Jul-20 16:47 313 8 gusting 17 28.3
2018-Jul-20 16:32 301 7 gusting 14 28.9
2018-Jul-20 16:17 299 11 gusting 25 28.3
2018-Jul-20 16:02 272 10 gusting 25 28.3
2018-Jul-20 15:47 238 9 gusting 19 28.9
2018-Jul-20 15:32 286 9 gusting 18 28.9
2018-Jul-20 15:17 266 7 gusting 20 29.4
2018-Jul-20 15:02 297 8 gusting 19 28.9
2018-Jul-20 14:47 303 7 gusting 15 28.9
2018-Jul-20 14:32 308 6 gusting 15 28.9
2018-Jul-20 14:17 281 7 gusting 13 28.3
2018-Jul-20 14:02 315 6 gusting 15 28.3
2018-Jul-20 13:47 319 5 gusting 11 28.9
2018-Jul-20 13:32 302 1 gusting 9 28.3
2018-Jul-20 13:17 281 4 gusting 10 28.3
2018-Jul-20 13:02 290 3 gusting 10 28.3
2018-Jul-20 12:47 301 1 gusting 12 28.3
2018-Jul-20 12:32 281 4 gusting 13 28.3
2018-Jul-20 12:17 271 4 gusting 11 27.8
2018-Jul-20 12:02 004 27.8